This is the latest recevied weather packets stored in our database for station/object KM4RT-13. If no packets are shown the sender has not sent any weather packets the latest 1 day(s).
| Time | Temp. | Humidity | Pressure | Rain* | Wind** | Luminosity | Snow |
|---|---|---|---|---|---|---|---|
| 1778109305 | 12.22° C | 94% | 1012.2 hPa | 0 mm | - | 36 W/m² | - |
| 1778108699 | 12.22° C | 94% | 1012.3 hPa | 0 mm | - | 13 W/m² | - |
| 1778108396 | 12.22° C | 95% | 1012.3 hPa | 0 mm | - | 26 W/m² | - |
| 1778107789 | 12.22° C | 95% | 1011.5 hPa | 0 mm | - | 41 W/m² | - |
| 1778107183 | 12.22° C | 95% | 1011.4 hPa | 0 mm | - | 62 W/m² | - |
| 1778106879 | 12.22° C | 95% | 1011.3 hPa | 0 mm | - | 86 W/m² | - |
| 1778104453 | 12.22° C | 96% | 1011.1 hPa | 0 mm | - | 117 W/m² | - |
| 1778103241 | 12.22° C | 96% | 1010.7 hPa | 0 mm | - | 86 W/m² | - |
| 1778102025 | 12.22° C | 95% | 1012.9 hPa | 1.78 mm | - | 91 W/m² | - |
| 1778100509 | 12.22° C | 93% | 1011.7 hPa | 3.05 mm | - | 83 W/m² | - |
| 1778099904 | 12.78° C | 92% | 1011.8 hPa | 0 mm | - | 69 W/m² | - |
| 1778099601 | 12.78° C | 92% | 1011.8 hPa | 0 mm | - | 79 W/m² | - |
| 1778098995 | 12.78° C | 91% | 1012 hPa | 3.05 mm | - | 66 W/m² | - |
| 1778098389 | 12.78° C | 90% | 1012.6 hPa | 1.27 mm | - | 91 W/m² | - |
| 1778097478 | 13.33° C | 87% | 1012.8 hPa | 0 mm | - | 64 W/m² | - |
| 1778097175 | 13.33° C | 86% | 1012.9 hPa | 0 mm | - | 84 W/m² | - |
| 1778096872 | 13.33° C | 86% | 1012.8 hPa | 0 mm | - | 135 W/m² | - |
| 1778096568 | 13.33° C | 87% | 1012.5 hPa | 0 mm | - | 114 W/m² | - |
| 1778093840 | 13.33° C | 88% | 1012.8 hPa | 0 mm | - | 103 W/m² | - |
| 1778093234 | 13.33° C | 87% | 1012.3 hPa | 0 mm | - | 159 W/m² | - |
| 1778092931 | 13.33° C | 87% | 1012.2 hPa | 0 mm | - | 160 W/m² | - |
| 1778092021 | 13.33° C | 88% | 1012.3 hPa | 0 mm | - | 237 W/m² | - |
| 1778090500 | 13.33° C | 90% | 1012.2 hPa | 0 mm | - | 190 W/m² | - |
| 1778089893 | 12.78° C | 89% | 1012.4 hPa | 0 mm | - | 148 W/m² | - |
| 1778089592 | 12.78° C | 90% | 1012.2 hPa | 0 mm | - | 251 W/m² | - |
* Rain latest hour (hover to see other rain measurements)
** Current wind speed in m/s (hover to see current wind gust speed)